Location: Hains Lake
(37.8540°N, 99.8578°W)
Time: 04:17:47
(UTC+00:00)

Vanguard 2 Rocket - Pass Details

Date: 18 April 2021
Orbit: 553 x 3326 km, 32.9° (Epoch: 07 May)

Event Time Altitude Azimuth Distance (km) Brightness Sun altitude
Rises 04:32:25 0° 277° (W) 6,289 11.8 -33.0°
Reaches altitude 10° 04:40:55 10° 251° (WSW) 4,491 10.6 -34.0°
Maximum altitude 04:44:23 12° 234° (SW) 3,986 10.1 -34.4°
Enters shadow 04:46:43 11° 221° (SW) 3,803 9.9 -34.6°
Drops below altitude 10° 04:47:25 10° 216° (SW) 3,779 - -34.7°
Sets 04:52:48 0° 185° (S) 4,120 - -35.3°
